Madisonville, TN (37354)

12:54 AM EST on February 09, 2016 (GMT -0500)
Rockwell Heights | | Change Station
CLOSE
Current Station
Personal Weather Station
Location: Madisonville, TN
Elevation: 1017 ft
Nearby Weather Stations
Active Advisory: Winter Weather Advisory

Elev 1017 ft 35.54 °N, 84.39 °W | Updated 52 minutes ago

Overcast
Overcast
31.6 °F
Feels Like 25 °F
N
7.6
Wind Variable Wind from WNW
Gusts 15.4 mph

Today
High -- | Low -- °F
--% Chance of Precip.
Yesterday
High -- | Low -- °F
Precip. -- in
Pressure 29.83 in
Visibility 10.0 miles
Clouds Few 2600 ft
Overcast 11000 ft
Windchill 25 °F
Dew Point 19 °F
Humidity 60%
Rainfall 0.00 in
Snow Depth Not available.
7:30 AM 6:13 PM
New Moon, 1% visible
METAR KMMI 090455Z AUTO 29004KT 10SM FEW026 OVC110 M02/M04 A2983 RMK
Pressure 29.83 in
Visibility 10.0 miles
Clouds Few 2600 ft
Overcast 11000 ft
Windchill 25 °F
Dew Point 19 °F
Humidity 60%
Rainfall 0.00 in
Snow Depth Not available.
7:30 AM 6:13 PM
New Moon, 1% visible
METAR KMMI 090455Z AUTO 29004KT 10SM FEW026 OVC110 M02/M04 A2983 RMK

10-Day Weather Forecast

Almanac

Astronomy

Feb. 09, 2016 Rise Set
Actual Time
Civil Twilight
Nautical Twilight
Astronomical Twilight
Moon
Length of Visible Light
Length of Day
Tomorrow will be .
, % of the Moon is Illuminated

Today's Extremes

State Highs State Lows

Community

WunderPhotos

Upload Photos

1,891,566 photos uploaded!

WunderBlog® & News

Nearby

Air Quality

  Air Quality AQ Index Pollutant
Not available.

Snow Depth

Station Depth Elevation

Earthquake Activity

City Distance Mag. Time & Date
Minimum magnitude displayed is 2.5.

Coastal Water Temperatures

Place Temperature

Stations

Nearby Weather Stations

Station Location Temp. Windchill Dew Point Humidity Wind Precip. Elev Updated Type
                   

Watches & Warnings

Winter Weather Advisory
Issued: 8:26 PM CST Feb. 8, 2016 – National Weather Service

... Winter Weather Advisory remains in effect until 7 am EST /6 am
CST/ Wednesday...

* event... a series of upper-level disturbances will sweep across
the area over the next couple of days and nights... bringing
several periods of snow showers to the region. During the event
snowfall amounts will range from 1 to 2 inches over that period
of time... with a few locally higher amounts possible in the
higher elevations.

* Timing... tonight through Tuesday night.

* Impacts... the snow could cause hazardous driving conditions...
especially on secondary roads.

Precautionary/preparedness actions...

A Winter Weather Advisory for snow means that periods of snow are
expected or occurring... but accumulations are expected to be
light. Driving and walking may be difficult on untreated
roadways and sidewalks. Be prepared for snow covered roads and
limited visibilities. If you must travel... slow down and allow
extra time to reach your destination.